Iowa Falls, IA

1:53 PM CST on November 13, 2019 (GMT -0600)
Iowa Falls Municipal

Weather History for KIFA - October, 2019

Change the Weather History Date:

Monday, October 21, 2019

  Actual Average Record
Temperature  
Mean Temperature 50 °F -  
Max Temperature 55 °F 62 °F 81 °F (1953)
Min Temperature 44 °F 38 °F 22 °F (1960)
Degree Days  
Heating Degree Days 16    
Moisture  
Dew Point 44 °F    
Average Humidity 79    
Maximum Humidity 89    
Minimum Humidity 64    
Precipitation  
Precipitation 1.22 in - - ()
Sea Level Pressure  
Sea Level Pressure 29.37 in    
Wind  
Wind Speed 13 mph ()    
Max Wind Speed 31 mph    
Max Gust Speed 38 mph    
Visibility 8.4 miles    
Events Rain    
Averages and records for this station are not official NWS values.
T = Trace of Precipitation, MM = Missing Value Source: Averaged Metar Reports

Daily Weather History Graph

Daily Weather History Graph

Search for Another Location

Airport or City:

Astronomy

Oct. 21, 2019 Rise Set
Actual Time 7:32 AM CDT 6:21 PM CDT
Civil Twilight 7:04 AM CDT 6:50 PM CDT
Nautical Twilight 6:31 AM CDT 7:23 PM CDT
Astronomical Twilight 5:58 AM CDT 7:55 PM CDT
Moon No Moon Rise 2:55 PM CDT (10/21)
Length of Visible Light 11h 46m
Length of Day
10h 48m
Waning Gibbous, 48% of the Moon is Illuminated
Oct 21
Waning Gibbous
Oct 27
New
Nov 4
First Quarter
Nov 12
Full
Nov 19
Last Quarter

Hourly Weather History & Observations

Time (CDT) Temp. Windchill Dew Point Humidity Pressure Visibility Wind Dir Wind Speed Gust Speed Precip Events Conditions
12:15 AM 52.2 °F - 44.1 °F 74% 29.66 in 10.0 mi East 10.4 mph 16.1 mph N/A Rain Light Rain
12:35 AM 51.8 °F - 44.1 °F 75% 29.64 in 10.0 mi ESE 8.1 mph - 0.01 in Rain Rain
12:55 AM 51.1 °F - 44.8 °F 79% 29.65 in 7.0 mi ESE 10.4 mph - 0.05 in Rain Light Rain
1:15 AM 50.9 °F - 45.1 °F 81% 29.65 in 10.0 mi ESE 12.7 mph - 0.04 in Rain Rain
1:35 AM 50.9 °F - 45.5 °F 82% 29.64 in 7.0 mi East 9.2 mph - 0.12 in Rain Heavy Rain
1:55 AM 50.7 °F - 45.7 °F 83% 29.64 in 7.0 mi ESE 5.8 mph - 0.19 in Rain Rain
2:15 AM 50.5 °F - 46.0 °F 85% 29.62 in 2.0 mi East 6.9 mph - 0.18 in Rain Heavy Rain
2:35 AM 50.2 °F - 46.4 °F 87% 29.62 in 2.0 mi East 6.9 mph - 0.39 in Rain Heavy Rain
2:55 AM 50.2 °F - 46.8 °F 88% 29.59 in 4.0 mi ENE 8.1 mph - 0.49 in Rain Rain
3:15 AM 50.2 °F - 46.8 °F 88% 29.56 in 5.0 mi ENE 9.2 mph - 0.02 in Rain Rain
3:35 AM 50.2 °F - 46.8 °F 88% 29.53 in 7.0 mi ENE 11.5 mph - 0.04 in Rain Rain
3:55 AM 50.4 °F - 47.3 °F 89% 29.49 in 5.0 mi East 12.7 mph - 0.08 in Rain Light Rain
4:15 AM 50.9 °F - 47.5 °F 88% 29.43 in 5.0 mi East 21.9 mph 29.9 mph 0.04 in Rain Rain
4:35 AM 51.3 °F - 48.2 °F 89% 29.45 in 5.0 mi East 16.1 mph 23.0 mph 0.07 in Rain Rain
4:55 AM 50.9 °F - 47.7 °F 89% 29.40 in 7.0 mi East 18.4 mph 26.5 mph 0.10 in Rain Light Rain
5:15 AM 51.1 °F - 47.8 °F 89% 29.38 in 7.0 mi ESE 12.7 mph 24.2 mph 0.01 in Rain Light Rain
5:35 AM 51.1 °F - 48.0 °F 89% 29.38 in 10.0 mi East 18.4 mph 27.6 mph 0.01 in Rain Light Rain
5:55 AM 51.8 °F - 48.4 °F 88% 29.36 in 10.0 mi East 12.7 mph 26.5 mph 0.02 in Rain Light Rain
6:15 AM 52.0 °F - 48.7 °F 89% 29.35 in 7.0 mi East 17.3 mph 25.3 mph N/A   Overcast
6:35 AM 52.2 °F - 49.1 °F 89% 29.33 in 5.0 mi East 13.8 mph 20.7 mph N/A   Overcast
6:55 AM 52.7 °F - 49.3 °F 88% 29.32 in 5.0 mi East 15.0 mph 20.7 mph 0.01 in Rain Light Rain
7:15 AM 52.7 °F - 49.5 °F 89% 29.31 in 4.0 mi ESE 12.7 mph - 0.05 in Rain Rain
7:35 AM 52.9 °F - 49.6 °F 89% 29.32 in 4.0 mi SE 9.2 mph - 0.08 in Rain Heavy Rain
7:55 AM 53.1 °F - 49.8 °F 89% 29.32 in 3.0 mi South 12.7 mph - 0.16 in Rain Heavy Rain
8:15 AM 52.2 °F - 48.9 °F 89% 29.32 in 4.0 mi SSE 8.1 mph - 0.05 in Rain Rain
8:35 AM 50.9 °F - 47.5 °F 88% 29.32 in 10.0 mi SSE 5.8 mph - 0.09 in Rain Rain
8:55 AM 51.8 °F - 48.4 °F 88% 29.31 in 7.0 mi SSW 6.9 mph - 0.11 in Rain Rain
9:15 AM 51.6 °F - 48.2 °F 88% 29.30 in 10.0 mi SW 4.6 mph - N/A Rain Light Rain
9:35 AM 52.2 °F - 49.1 °F 89% 29.29 in 10.0 mi SW 3.5 mph - N/A   Mostly Cloudy
9:55 AM 52.7 °F - 49.5 °F 89% 29.29 in 10.0 mi SW 6.9 mph - N/A   Scattered Clouds
10:15 AM 54.1 °F - 50.9 °F 89% 29.28 in 10.0 mi SW 6.9 mph - N/A   Mostly Cloudy
10:35 AM 54.1 °F - 50.0 °F 86% 29.28 in 10.0 mi SW 10.4 mph - N/A   Overcast
10:55 AM 54.9 °F - 50.4 °F 85% 29.28 in 10.0 mi SW 12.7 mph 17.3 mph N/A   Overcast
11:15 AM 55.4 °F - 49.1 °F 79% 29.28 in 10.0 mi SSW 13.8 mph 19.6 mph N/A   Overcast
11:35 AM 54.1 °F - 45.3 °F 72% 29.28 in 10.0 mi SW 19.6 mph 25.3 mph N/A   Overcast
11:55 AM 53.1 °F - 43.2 °F 69% 29.28 in 10.0 mi SSW 18.4 mph 25.3 mph N/A   Overcast
12:15 PM 54.1 °F - 43.0 °F 66% 29.28 in 10.0 mi SSW 20.7 mph 26.5 mph N/A   Mostly Cloudy
12:35 PM 53.2 °F - 41.5 °F 65% 29.28 in 10.0 mi SSW 21.9 mph 27.6 mph N/A   Scattered Clouds
12:55 PM 52.2 °F - 41.0 °F 66% 29.28 in 10.0 mi SSW 19.6 mph 26.5 mph N/A   Scattered Clouds
1:15 PM 53.2 °F - 41.5 °F 65% 29.27 in 10.0 mi SSW 20.7 mph 25.3 mph N/A   Scattered Clouds
1:35 PM 52.2 °F - 40.1 °F 64% 29.28 in 10.0 mi SW 23.0 mph 28.8 mph N/A   Mostly Cloudy
1:55 PM 51.8 °F - 40.3 °F 65% 29.29 in 10.0 mi SSW 25.3 mph 32.2 mph N/A   Overcast
2:15 PM 51.6 °F - 40.3 °F 65% 29.29 in 10.0 mi SSW 27.6 mph 33.4 mph N/A   Overcast
2:35 PM 51.1 °F - 40.1 °F 66% 29.30 in 10.0 mi SSW 21.9 mph 33.4 mph N/A   Overcast
2:55 PM 50.9 °F - 40.5 °F 67% 29.30 in 10.0 mi SSW 23.0 mph 32.2 mph N/A   Overcast
3:15 PM 50.2 °F - 40.3 °F 69% 29.30 in 10.0 mi SSW 21.9 mph 34.5 mph N/A   Overcast
3:35 PM 50.5 °F - 40.3 °F 68% 29.31 in 10.0 mi SSW 23.0 mph 32.2 mph N/A   Overcast
3:55 PM 50.0 °F - 40.1 °F 69% 29.31 in 10.0 mi SSW 23.0 mph 27.6 mph N/A   Overcast
4:15 PM 49.6 °F - 40.5 °F 71% 29.31 in 10.0 mi SSW 21.9 mph 28.8 mph N/A   Overcast
4:35 PM 50.0 °F - 40.6 °F 70% 29.32 in 10.0 mi SSW 24.2 mph 29.9 mph N/A   Overcast
4:55 PM 50.0 °F - 40.5 °F 70% 29.32 in 10.0 mi SSW 21.9 mph 28.8 mph N/A   Overcast
5:15 PM 50.2 °F - 41.2 °F 71% 29.32 in 10.0 mi SSW 23.0 mph 27.6 mph N/A   Light Drizzle
5:35 PM 50.9 °F - 41.2 °F 69% 29.31 in 10.0 mi SSW 20.7 mph 28.8 mph N/A   Overcast
5:55 PM 50.9 °F - 41.0 °F 69% 29.31 in 10.0 mi SSW 20.7 mph 29.9 mph N/A   Overcast
6:15 PM 50.0 °F - 41.4 °F 72% 29.31 in 7.0 mi SW 19.6 mph 31.1 mph N/A Rain Heavy Rain
6:35 PM 49.3 °F - 42.8 °F 78% 29.31 in 7.0 mi SSW 21.9 mph 28.8 mph 0.01 in Rain Rain
6:55 PM 48.6 °F - 42.8 °F 80% 29.34 in 10.0 mi WSW 31.1 mph 38.0 mph 0.01 in Rain Rain
7:15 PM 45.9 °F 37.6 °F 39.6 °F 79% 29.35 in 10.0 mi WSW 23.0 mph 28.8 mph N/A   Overcast
7:35 PM 45.5 °F 38.6 °F 38.8 °F 78% 29.35 in 10.0 mi WSW 16.1 mph 27.6 mph N/A   Overcast
7:55 PM 45.1 °F 37.1 °F 38.8 °F 79% 29.36 in 10.0 mi WSW 20.7 mph 29.9 mph N/A   Overcast
8:35 PM 44.6 °F 36.6 °F 38.8 °F 80% 29.36 in 10.0 mi WSW 19.6 mph 28.8 mph N/A   Drizzle
8:55 PM 44.6 °F 35.9 °F 38.5 °F 79% 29.36 in 10.0 mi WSW 23.0 mph 33.4 mph N/A Rain Light Rain
9:15 PM 44.2 °F 35.4 °F 37.9 °F 79% 29.36 in 10.0 mi West 23.0 mph 31.1 mph N/A Rain Light Rain
9:35 PM 44.2 °F 36.7 °F 38.3 °F 80% 29.36 in 10.0 mi WSW 17.3 mph 26.5 mph N/A Rain Light Rain
9:55 PM 44.6 °F 36.1 °F 38.8 °F 80% 29.36 in 10.0 mi WSW 21.9 mph 29.9 mph N/A Rain Rain
10:15 PM 44.8 °F 36.4 °F 39.4 °F 81% 29.35 in 10.0 mi WSW 21.9 mph 29.9 mph N/A   Light Drizzle
10:35 PM 45.5 °F 36.5 °F 40.1 °F 81% 29.36 in 7.0 mi West 26.5 mph 36.8 mph N/A   Drizzle
10:55 PM 45.1 °F 37.3 °F 40.1 °F 82% 29.36 in 7.0 mi West 19.6 mph 27.6 mph N/A Rain Light Rain
11:15 PM 45.1 °F 36.4 °F 39.7 °F 81% 29.37 in 10.0 mi West 24.2 mph 34.5 mph N/A   Drizzle
11:35 PM 45.0 °F 35.6 °F 39.2 °F 80% 29.38 in 10.0 mi West 27.6 mph 36.8 mph N/A   Drizzle
11:55 PM 44.8 °F 36.9 °F 39.4 °F 81% 29.38 in 7.0 mi WSW 19.6 mph 28.8 mph N/A   Drizzle